Home   Weather   Dallas   Past weeks

Flag for USA Past Weather in Dallas, Texas, USA — Yesterday and Last 2 Weeks

Now
82 °F

Scattered clouds.


Feels Like: 87 °F
Forecast: 77 / 96 °F
Wind: 7 mph from South

Location: Dallas Love Field

Current Time: Jul 25, 2017 at 9:59:54 am

Latest Report: Jul 25, 2017 at 8:53 am


Visibility: 7 mi

Pressure: 30.06 "Hg

Humidity: 74%

Dew Point: 73 °F

Location of DallasLocation

Past Weather in Dallas — Graph

°F

Dallas Temperature Yesterday

Maximum temperature yesterday: 91 °F (at 5:53 pm)
Minimum temperature yesterday: 74 °F (at 12:53 am)
Average temperature yesterday: 80 °F

High & Low Weather Summary for the Past Weeks

 TemperatureHumidityPressure
High100 °F (Jul 23, 2:53 pm)94% (Jul 24, 12:53 am)30.11 "Hg (Jul 24, 12:53 am)
Low74 °F (Jul 24, 12:53 am)35% (Jul 11, 6:53 pm)29.77 "Hg (Jul 23, 5:53 pm)
Average88 °F60%29.97 "Hg
* Reported Jul 10 7:53 am — Jul 25 7:53 am, Dallas. Weather by CustomWeather, © 2017

Note: Actual official high and low records may vary slightly from our data, if they occured in-between our weather recording intervals... More about our weather records

Advertising

Dallas Weather History for the Previous 24 Hours

Scroll right to see more
 ConditionsComfort  
Time TempWeatherWind HumidityBarometerVisibility
7:53 am
Tue, Jul 25
79 °FPassing clouds.8 mph82%30.05 "Hg7 mi
6:53 am79 °FPassing clouds.10 mph79%30.03 "Hg8 mi
5:53 am78 °FPassing clouds.7 mph84%30.01 "Hg10 mi
4:53 am79 °FPassing clouds.8 mph82%29.99 "Hg10 mi
3:53 am80 °FPassing clouds.10 mph81%29.99 "Hg10 mi
2:53 am80 °FPartly cloudy.7 mph79%29.98 "Hg10 mi
1:53 am80 °FPassing clouds.6 mph79%29.98 "Hg10 mi
12:53 am81 °FClear.10 mph77%29.98 "Hg10 mi
11:53 pm
Mon, Jul 24
82 °FClear.10 mph74%29.97 "Hg10 mi
10:53 pm83 °FClear.13 mph70%29.95 "Hg10 mi
9:53 pm84 °FClear.12 mph70%29.93 "Hg10 mi
8:53 pm86 °FPassing clouds.15 mph65%29.93 "Hg10 mi
7:53 pm87 °FPassing clouds.14 mph67%29.91 "Hg10 mi
6:53 pm90 °FScattered clouds.12 mph59%29.91 "Hg10 mi
5:53 pm91 °FScattered clouds.6 mph54%29.90 "Hg10 mi
4:53 pm90 °FScattered clouds.8 mph57%29.90 "Hg10 mi
3:53 pm89 °FScattered clouds.8 mph61%29.91 "Hg10 mi
2:53 pm87 °FPartly sunny.3 mph63%29.94 "Hg10 mi
1:53 pm86 °FPartly sunny.6 mph65%29.96 "Hg10 mi
12:53 pm84 °FBroken clouds.7 mph70%29.98 "Hg10 mi
11:53 am82 °FBroken clouds.8 mph74%29.98 "Hg10 mi
10:53 am80 °FPartly sunny.5 mph76%29.99 "Hg10 mi
9:53 am77 °FBroken clouds.5 mph85%29.98 "Hg10 mi
Weather by CustomWeather, © 2017

See weather overviewHow to use our weather pages